[[{"header":{"parameterUnit":"m.s-1","parameterCategory":2,"la1":30.2991,"la2":30.254,"lo1":-89.0895,"lo2":-89.0444,"dy":0.0017,"dx":0.0017,"nx":28,"ny":28,"refTime":"2024-08-14T03:00:00:Z","depth":"0","parameterNumber":2,"parameterNumberName":"U-component_of_CURRENTS"},"data":[0,0,0,0,0,0,0,0,0,0,0,0,0,0,0,0,0,0,0,0,0,0,0,0,0,0,0,0,0,0,0,0,0,0,0,0,0,0,0,0,0,0,0,0,0,0,0,0,0,0,0,0,0,0,0,0,0,0,-0.263,-0.2631,0,-0.2665,-0.2666,-0.2666,-0.2664,-0.2663,-0.2663,-0.2663,-0.2651,-0.2651,-0.2651,0,0,0,0,0,0,0,0,0,0,0,0,0,-0.2567,-0.2567,-0.263,-0.2631,-0.2631,-0.2665,-0.2666,-0.2666,-0.2664,-0.2663,-0.2663,-0.2662,-0.2651,-0.2651,-0.2651,0,0,0,0,0,0,0,0,0,0,0,0,0,-0.2595,-0.2568,-0.263,-0.2636,-0.2637,-0.2665,-0.2666,-0.2666,-0.2664,-0.2663,-0.2663,-0.2662,-0.2651,-0.2651,-0.2651,-0.2661,0,0,-0.2651,-0.2651,0,0,0,0,0,0,0,0,-0.2594,-0.2597,-0.2634,-0.2635,-0.2637,-0.2661,-0.2639,-0.2663,-0.2664,-0.2651,-0.2663,-0.2662,-0.2651,-0.2651,-0.2657,-0.266,-0.266,-0.2651,-0.2651,-0.2651,-0.2651,0,0,0,0,0,0,0,-0.2592,-0.2596,-0.2642,-0.2635,-0.2636,-0.2639,-0.2642,-0.2643,-0.2651,-0.2652,-0.2653,-0.266,-0.2651,-0.2657,-0.2657,-0.266,-0.2651,-0.2651,-0.2651,-0.2651,-0.2681,-0.2681,0,0,0,0,0,0,-0.2592,-0.2594,-0.2641,-0.2643,-0.2616,-0.264,-0.2644,-0.2652,-0.2652,-0.2653,-0.266,-0.266,-0.2657,-0.2657,-0.2656,-0.267,-0.2651,-0.2651,-0.2651,-0.268,-0.2681,-0.2682,0,0,0,0,0,0,-0.259,-0.2596,-0.264,-0.2621,-0.2627,-0.2642,-0.2651,-0.2653,-0.2655,-0.2659,-0.2658,-0.266,-0.2657,-0.2656,-0.2663,-0.267,-0.2651,-0.2651,-0.2679,-0.268,-0.2681,-0.2697,0,0,0,0,0,0,-0.2588,-0.2595,-0.2598,-0.2621,-0.2628,-0.266,-0.2652,-0.2654,-0.2661,-0.2661,-0.2659,-0.2657,-0.2656,-0.2663,-0.2663,-0.2669,-0.2651,-0.2678,-0.268,-0.2681,-0.2696,-0.2699,-0.2702,0,0,0,0,0,-0.2586,-0.2597,-0.2598,-0.2604,-0.2633,-0.2661,-0.2665,-0.2672,-0.2662,-0.2669,-0.2668,-0.2657,-0.2672,-0.2664,-0.2663,-0.267,-0.2677,-0.2679,-0.2681,-0.2695,-0.2698,-0.2702,0,0,0,0,0,0,-0.2572,-0.2598,-0.2601,-0.2619,-0.2639,-0.2661,-0.2667,-0.2671,-0.2676,-0.2671,-0.2667,-0.2666,-0.2678,-0.2673,-0.2664,-0.2685,-0.2673,-0.2675,-0.2684,-0.2688,-0.269,-0.2682,-0.2651,0,0,0,0,0,-0.2572,-0.2583,-0.261,-0.2623,-0.2632,-0.2647,-0.2656,-0.2665,-0.2675,-0.2676,-0.2681,-0.2682,-0.2687,-0.2685,-0.2695,-0.2701,-0.2672,-0.2706,-0.2709,-0.2712,-0.2706,-0.2669,-0.2667,-0.2688,-0.2688,-0.2688,0,0,-0.2567,-0.2585,-0.2589,-0.262,-0.2632,-0.266,-0.2651,-0.2668,-0.2687,-0.2674,-0.2695,-0.2695,-0.2694,-0.2708,-0.2712,-0.2701,-0.2692,-0.2714,-0.2716,-0.2709,-0.2671,-0.2668,-0.2666,-0.2689,-0.2689,-0.2688,0,0,-0.2578,-0.2581,-0.26,-0.2621,-0.2648,-0.2661,-0.2666,-0.2693,-0.2696,-0.2717,-0.2714,-0.2713,-0.2729,-0.2727,-0.2725,-0.2747,-0.2713,-0.2756,-0.2756,-0.272,-0.2717,-0.2715,-0.2673,-0.2667,-0.2751,-0.2751,-0.2751,0,-0.2573,-0.2602,-0.261,-0.2641,-0.2656,-0.2663,-0.269,-0.2703,-0.273,-0.2728,-0.2726,-0.2733,-0.2735,-0.2733,-0.2748,-0.2752,-0.2724,-0.274,-0.2721,-0.2718,-0.2715,-0.2673,-0.2666,-0.2752,-0.2751,-0.2751,-0.2751,0,-0.2604,-0.2628,-0.264,-0.2679,-0.2698,-0.2719,-0.2742,-0.2753,-0.2753,-0.2761,-0.276,-0.2757,-0.2753,-0.276,-0.2763,-0.2748,-0.2734,-0.2732,-0.2707,-0.2714,-0.267,-0.2661,-0.2753,-0.2753,-0.2752,-0.2752,0,0,-0.2579,-0.2649,-0.265,-0.2672,-0.2716,-0.2731,-0.2759,-0.2777,-0.2774,-0.2788,-0.2779,-0.2789,-0.2771,-0.2769,-0.2763,-0.2737,-0.2699,-0.2728,-0.2726,-0.2677,-0.2611,-0.2458,-0.2434,-0.2691,-0.269,-0.2689,-0.2588,0,-0.2594,-0.2656,-0.2687,-0.2729,-0.2754,-0.2771,-0.2793,-0.2808,-0.2806,-0.2803,-0.2781,-0.2776,-0.2778,-0.2765,-0.2742,-0.2721,-0.2679,-0.2726,-0.2621,-0.2618,-0.2471,-0.242,-0.2255,-0.2138,-0.2579,-0.2578,-0.2577,0,-0.2595,-0.2643,-0.2692,-0.2742,-0.2751,-0.2777,-0.2783,-0.2806,-0.2805,-0.2801,-0.2782,-0.2769,-0.2747,-0.2738,-0.2673,-0.2703,-0.2654,-0.2626,-0.2621,-0.2463,-0.2447,-0.2204,-0.2106,-0.191,-0.2564,-0.2565,-0.2566,0,-0.2542,-0.2626,-0.2659,-0.2681,-0.2751,-0.276,-0.2784,-0.2795,-0.2793,-0.2789,-0.2769,-0.2751,-0.2715,-0.2675,-0.2611,-0.2645,-0.2516,-0.2554,-0.236,-0.235,-0.2179,-0.2153,-0.1865,-0.2476,-0.2476,-0.2476,-0.2477,0,-0.2522,-0.254,-0.2638,-0.2655,-0.2678,-0.2733,-0.2734,-0.2752,-0.2761,-0.2737,-0.2753,-0.2708,-0.2694,-0.2621,-0.2589,-0.2423,-0.2487,-0.2332,-0.2299,-0.2179,-0.2156,-0.1955,-0.2028,-0.2472,-0.2473,-0.2474,-0.2475,0,-0.2428,-0.2504,-0.2539,-0.2627,-0.2649,-0.2654,-0.2702,-0.2694,-0.2718,-0.2682,-0.2676,-0.266,-0.2567,-0.2513,-0.2429,-0.2349,-0.2163,-0.2166,-0.2017,-0.1965,-0.1606,-0.1692,-0.1607,-0.1573,-0.1946,-0.1941,-0.1937,0,-0.238,-0.2393,-0.2488,-0.2509,-0.2543,-0.2576,-0.2589,-0.2651,-0.2645,-0.2633,-0.26,-0.2519,-0.2426,-0.2234,-0.2091,-0.1946,-0.1966,-0.1691,-0.1716,-0.1515,-0.1589,-0.1745,-0.1737,-0.151,-0.1503,-0.1497,-0.1493,0,-0.2267,-0.2299,-0.2331,-0.2396,-0.2425,-0.2456,-0.2487,-0.2485,-0.2532,-0.25,-0.243,-0.2361,-0.2161,-0.1881,-0.1666,-0.1611,-0.1606,-0.1564,-0.1391,-0.1235,-0.1356,-0.1328,-0.1662,-0.1441,-0.1446,-0.145,-0.1453,-0.1455,-0.2147,-0.2141,-0.2199,-0.224,-0.229,-0.2312,-0.2263,-0.2303,-0.2275,-0.2143,-0.2214,-0.1955,-0.162,-0.1299,-0.1238,-0.0896,-0.1233,-0.0797,-0.0924,-0.11,-0.1036,-0.1237,-0.0956,-0.0958,-0.096,-0.0962,-0.0963,0,-0.1981,-0.1999,-0.204,-0.2091,-0.2091,-0.2165,-0.2159,-0.2057,-0.1956,-0.1817,-0.1706,-0.1207,-0.0858,-0.0597,-0.0201,-0.0151,-0.0345,-0.0206,-0.036,-0.039,-0.0516,-0.0447,0.0005,0.0004,0.0004,0.0004,0.0004,0.0003,-0.1889,-0.186,-0.1898,-0.187,-0.1896,-0.1783,-0.1726,-0.161,-0.1449,-0.1063,-0.0706,-0.0543,-0.0163,0.0249,0.0527,0.0421,0.027,0.0114,0.0014,0.0015,-0.0049,-0.011,-0.0043,0.0485,0.0485,0.0235,0.0234,0.0232]},{"header":{"parameterUnit":"m.s-1","parameterCategory":2,"la1":30.2991,"la2":30.254,"lo1":-89.0895,"lo2":-89.0444,"dy":0.0017,"dx":0.0017,"nx":28,"ny":28,"refTime":"2024-08-14T03:00:00:Z","depth":"0","parameterNumber":3,"parameterNumberName":"V-component_of_CURRENTS"},"data":[0,0,0,0,0,0,0,0,0,0,0,0,0,0,0,0,0,0,0,0,0,0,0,0,0,0,0,0,0,0,0,0,0,0,0,0,0,0,0,0,0,0,0,0,0,0,0,0,0,0,0,0,0,0,0,0,0,0,-0.1397,-0.1396,0,-0.1316,-0.1315,-0.1315,-0.125,-0.1249,-0.1248,-0.1247,-0.1185,-0.1184,-0.1183,0,0,0,0,0,0,0,0,0,0,0,0,0,-0.1427,-0.1427,-0.1397,-0.1396,-0.1395,-0.1316,-0.1315,-0.1315,-0.125,-0.1249,-0.1248,-0.1247,-0.1185,-0.1184,-0.1183,0,0,0,0,0,0,0,0,0,0,0,0,0,-0.139,-0.1427,-0.1398,-0.1351,-0.1345,-0.1316,-0.1315,-0.1314,-0.1251,-0.1249,-0.1248,-0.1246,-0.1185,-0.1184,-0.1183,-0.1205,0,0,-0.118,-0.1179,0,0,0,0,0,0,0,0,-0.1392,-0.139,-0.1359,-0.1354,-0.1348,-0.1289,-0.1302,-0.1278,-0.1251,-0.129,-0.1247,-0.1246,-0.122,-0.1216,-0.1209,-0.1202,-0.1199,-0.118,-0.1179,-0.1178,-0.1178,0,0,0,0,0,0,0,-0.1395,-0.1392,-0.1369,-0.1357,-0.1351,-0.1309,-0.1303,-0.1297,-0.1267,-0.1287,-0.1281,-0.1267,-0.1217,-0.121,-0.1207,-0.1199,-0.118,-0.1179,-0.1178,-0.1177,-0.1185,-0.1186,0,0,0,0,0,0,-0.1404,-0.1395,-0.1371,-0.1366,-0.1363,-0.131,-0.1304,-0.1312,-0.1267,-0.1257,-0.1268,-0.1264,-0.1213,-0.1208,-0.1204,-0.1204,-0.1178,-0.1177,-0.1177,-0.1184,-0.1185,-0.1186,0,0,0,0,0,0,-0.1405,-0.1403,-0.1374,-0.1374,-0.1367,-0.1311,-0.1321,-0.1311,-0.1294,-0.1252,-0.1243,-0.1259,-0.1211,-0.1206,-0.121,-0.1202,-0.1177,-0.1176,-0.1183,-0.1184,-0.1186,-0.1218,0,0,0,0,0,0,-0.1407,-0.1405,-0.142,-0.1376,-0.1367,-0.1372,-0.1321,-0.131,-0.1286,-0.128,-0.1242,-0.1235,-0.121,-0.1212,-0.1209,-0.12,-0.1175,-0.1182,-0.1184,-0.1185,-0.1216,-0.1221,-0.1225,0,0,0,0,0,-0.1409,-0.1441,-0.1422,-0.1418,-0.1389,-0.1373,-0.1367,-0.1322,-0.1287,-0.1298,-0.1271,-0.1236,-0.1219,-0.1213,-0.1208,-0.1199,-0.1181,-0.1183,-0.1185,-0.1214,-0.122,-0.1224,0,0,0,0,0,0,-0.1457,-0.1435,-0.1414,-0.1437,-0.141,-0.1361,-0.1364,-0.1326,-0.1311,-0.1304,-0.1258,-0.1251,-0.1245,-0.123,-0.1224,-0.1208,-0.119,-0.1192,-0.1214,-0.1219,-0.1223,-0.1237,-0.1174,0,0,0,0,0,-0.1477,-0.1497,-0.1458,-0.1475,-0.1467,-0.1414,-0.14,-0.137,-0.1344,-0.1334,-0.1304,-0.1277,-0.1253,-0.1244,-0.123,-0.1233,-0.1224,-0.1222,-0.1227,-0.123,-0.1241,-0.1249,-0.1255,-0.1193,-0.1193,-0.1193,0,0,-0.1493,-0.1487,-0.1494,-0.1486,-0.1462,-0.1461,-0.1404,-0.1394,-0.138,-0.1333,-0.1323,-0.1295,-0.1259,-0.1254,-0.1249,-0.1239,-0.1238,-0.1233,-0.1236,-0.1244,-0.1252,-0.1258,-0.1263,-0.1194,-0.1194,-0.1194,0,0,-0.1536,-0.1539,-0.1564,-0.1554,-0.1528,-0.1501,-0.1498,-0.1457,-0.143,-0.1425,-0.1372,-0.1349,-0.1328,-0.1292,-0.127,-0.1295,-0.1261,-0.1282,-0.1312,-0.132,-0.1325,-0.133,-0.1303,-0.1305,-0.1283,-0.1283,-0.1283,0,-0.155,-0.1577,-0.1567,-0.1584,-0.1571,-0.1522,-0.1528,-0.1504,-0.1466,-0.1448,-0.1433,-0.1379,-0.1343,-0.1311,-0.1312,-0.1301,-0.1297,-0.1291,-0.1325,-0.133,-0.1334,-0.1306,-0.1308,-0.1285,-0.1285,-0.1285,-0.1284,0,-0.1605,-0.162,-0.1635,-0.1641,-0.1638,-0.1638,-0.16,-0.1589,-0.155,-0.1517,-0.1487,-0.1445,-0.141,-0.1385,-0.1353,-0.1349,-0.1331,-0.1329,-0.1311,-0.1342,-0.131,-0.1312,-0.1288,-0.1287,-0.1286,-0.1286,0,0,-0.1627,-0.1664,-0.1665,-0.1667,-0.1662,-0.1659,-0.1654,-0.1625,-0.1611,-0.1579,-0.1558,-0.1504,-0.1474,-0.1449,-0.1397,-0.1395,-0.1398,-0.1378,-0.1378,-0.1349,-0.1399,-0.1307,-0.1298,-0.141,-0.1411,-0.1412,-0.1357,0,-0.1653,-0.1701,-0.1711,-0.1731,-0.1737,-0.1709,-0.1709,-0.1684,-0.1654,-0.1635,-0.1573,-0.1546,-0.1498,-0.1476,-0.1467,-0.1417,-0.1408,-0.1412,-0.1377,-0.1375,-0.1287,-0.1299,-0.1168,-0.1103,-0.1358,-0.1358,-0.1359,0,-0.1686,-0.171,-0.1747,-0.1758,-0.1759,-0.177,-0.1753,-0.1746,-0.1713,-0.1691,-0.166,-0.1618,-0.1575,-0.1548,-0.1492,-0.1501,-0.1458,-0.1424,-0.1421,-0.1329,-0.1286,-0.1118,-0.1095,-0.0935,-0.136,-0.136,-0.136,0,-0.1691,-0.1723,-0.1753,-0.1759,-0.1776,-0.1778,-0.1778,-0.1761,-0.1747,-0.1725,-0.1718,-0.1675,-0.164,-0.1607,-0.1513,-0.1517,-0.146,-0.1455,-0.1328,-0.132,-0.1197,-0.1176,-0.1013,-0.1438,-0.1438,-0.1439,-0.1439,0,-0.1707,-0.172,-0.1757,-0.1771,-0.1789,-0.1797,-0.1807,-0.1798,-0.1787,-0.1778,-0.1746,-0.1723,-0.1662,-0.1608,-0.1542,-0.1422,-0.148,-0.1332,-0.1306,-0.12,-0.1181,-0.1028,-0.1006,-0.1436,-0.1437,-0.1437,-0.1438,0,-0.1702,-0.1733,-0.1758,-0.1787,-0.1795,-0.1805,-0.182,-0.1823,-0.1818,-0.1805,-0.1799,-0.1758,-0.1691,-0.1607,-0.1532,-0.1436,-0.1243,-0.1294,-0.115,-0.1108,-0.0837,-0.0824,-0.0731,-0.0633,-0.115,-0.1147,-0.1145,0,-0.1696,-0.1717,-0.1766,-0.1783,-0.1796,-0.1813,-0.1824,-0.1829,-0.1828,-0.1814,-0.1803,-0.1749,-0.1676,-0.1514,-0.1361,-0.1215,-0.1142,-0.0994,-0.0977,-0.0795,-0.0763,-0.0794,-0.0721,-0.0817,-0.0812,-0.0809,-0.0806,0,-0.1663,-0.1696,-0.1725,-0.1772,-0.1793,-0.1812,-0.1824,-0.1821,-0.1821,-0.1798,-0.1753,-0.1701,-0.1548,-0.131,-0.1112,-0.1021,-0.0853,-0.091,-0.0768,-0.0525,-0.0506,-0.0406,-0.0863,-0.0772,-0.0775,-0.0778,-0.078,-0.0781,-0.1611,-0.164,-0.1691,-0.1724,-0.1764,-0.1775,-0.1721,-0.1736,-0.17,-0.1557,-0.1612,-0.1366,-0.1153,-0.0861,-0.0799,-0.0482,-0.062,-0.0344,-0.0353,-0.0408,-0.0283,-0.0649,-0.0505,-0.0506,-0.0508,-0.0509,-0.051,0,-0.1497,-0.1567,-0.1626,-0.1659,-0.1663,-0.17,-0.1679,-0.1566,-0.1456,-0.1312,-0.1184,-0.0734,-0.0501,-0.0316,-0.0031,0.0099,0.0089,0.0172,0.0178,0.0219,-0.0112,-0.006,0.0244,0.0244,0.0243,0.0243,0.0243,0.0243,-0.1429,-0.147,-0.1527,-0.1519,-0.1531,-0.1413,-0.1344,-0.1222,-0.1051,-0.0674,-0.0302,-0.0072,0.0187,0.0282,0.0515,0.0548,0.0659,0.0632,0.0641,0.0454,0.0406,0.036,0.0419,0.0819,0.0819,0.1029,0.1031,0.1033]}],[{"header":{"parameterUnit":"m.s-1","parameterCategory":2,"la1":30.2991,"la2":30.254,"lo1":-89.0895,"lo2":-89.0444,"dy":0.0017,"dx":0.0017,"nx":28,"ny":28,"refTime":"2024-08-14T03:00:00:Z","depth":"2","parameterNumber":2,"parameterNumberName":"U-component_of_CURRENTS"},"data":[0,0,0,0,0,0,0,0,0,0,0,0,0,0,0,0,0,0,0,0,0,0,0,0,0,0,0,0,0,0,0,0,0,0,0,0,0,0,0,0,0,0,0,0,0,0,0,0,0,0,0,0,0,0,0,0,0,0,-0.1916,-0.1917,0,-0.2057,-0.2059,-0.2062,-0.2193,-0.2194,-0.2195,-0.2196,-0.225,-0.2251,-0.2251,0,0,0,0,0,0,0,0,0,0,0,0,0,-0.1759,-0.1762,-0.1916,-0.1917,-0.1918,-0.2057,-0.206,-0.2062,-0.2193,-0.2194,-0.2195,-0.2196,-0.225,-0.225,-0.2251,0,0,0,0,0,0,0,0,0,0,0,0,0,-0.1864,-0.1762,-0.1916,-0.1993,-0.2001,-0.2056,-0.206,-0.2063,-0.2193,-0.2194,-0.2195,-0.2197,-0.2249,-0.225,-0.2251,-0.2234,0,0,-0.2255,-0.2255,0,0,0,0,0,0,0,0,-0.1858,-0.1871,-0.1981,-0.1988,-0.1996,-0.2101,-0.2024,-0.2113,-0.2193,-0.2129,-0.2196,-0.2197,-0.2185,-0.2192,-0.223,-0.2236,-0.2238,-0.2255,-0.2255,-0.2256,-0.2256,0,0,0,0,0,0,0,-0.1851,-0.1866,-0.1981,-0.1981,-0.1991,-0.202,-0.2037,-0.2042,-0.2154,-0.2135,-0.2143,-0.2144,-0.219,-0.2228,-0.2231,-0.2239,-0.2255,-0.2256,-0.2256,-0.2257,-0.2213,-0.2211,0,0,0,0,0,0,-0.1815,-0.1859,-0.1976,-0.1984,-0.1919,-0.2021,-0.2041,-0.2074,-0.2156,-0.2168,-0.2143,-0.2149,-0.2226,-0.223,-0.2233,-0.2219,-0.2256,-0.2257,-0.2257,-0.2215,-0.2212,-0.2211,0,0,0,0,0,0,-0.1811,-0.1825,-0.197,-0.1915,-0.1935,-0.2022,-0.2058,-0.2075,-0.2167,-0.2161,-0.2174,-0.222,-0.2227,-0.2232,-0.2238,-0.2221,-0.2257,-0.2258,-0.2217,-0.2214,-0.2212,-0.2187,0,0,0,0,0,0,-0.1807,-0.1824,-0.186,-0.1914,-0.1936,-0.2043,-0.2056,-0.2077,-0.2157,-0.217,-0.2229,-0.2234,-0.2228,-0.2237,-0.2239,-0.2223,-0.2259,-0.2219,-0.2215,-0.2212,-0.219,-0.2183,-0.2178,0,0,0,0,0,-0.1801,-0.1823,-0.1862,-0.1877,-0.1977,-0.2044,-0.2062,-0.2131,-0.216,-0.2217,-0.2214,-0.2235,-0.2217,-0.2236,-0.224,-0.2224,-0.2221,-0.2216,-0.2213,-0.2192,-0.2185,-0.2178,0,0,0,0,0,0,-0.176,-0.184,-0.1883,-0.1928,-0.2003,-0.2064,-0.2115,-0.2159,-0.2213,-0.2222,-0.2225,-0.2227,-0.223,-0.2224,-0.2246,-0.2196,-0.2217,-0.2214,-0.22,-0.2193,-0.2188,-0.2179,-0.226,0,0,0,0,0,-0.1768,-0.1822,-0.1897,-0.1939,-0.1985,-0.2066,-0.2109,-0.2158,-0.2192,-0.2226,-0.224,-0.2232,-0.2208,-0.2203,-0.2201,-0.2178,-0.2169,-0.2163,-0.2157,-0.2152,-0.2144,-0.2103,-0.2094,-0.2197,-0.2197,-0.2197,0,0,-0.1773,-0.1809,-0.1851,-0.1937,-0.2007,-0.203,-0.2101,-0.218,-0.2176,-0.2212,-0.222,-0.2236,-0.2203,-0.2174,-0.2172,-0.2171,-0.2117,-0.2147,-0.2144,-0.2138,-0.2098,-0.2088,-0.208,-0.2195,-0.2195,-0.2196,0,0,-0.1754,-0.1844,-0.1878,-0.1927,-0.2014,-0.205,-0.2082,-0.2167,-0.2206,-0.2213,-0.2212,-0.2211,-0.2201,-0.2156,-0.2128,-0.2087,-0.2104,-0.2095,-0.2045,-0.2005,-0.1997,-0.1989,-0.197,-0.196,-0.2073,-0.2073,-0.2073,0,-0.1762,-0.1796,-0.1899,-0.1909,-0.194,-0.2052,-0.2074,-0.2103,-0.2163,-0.217,-0.221,-0.2175,-0.2174,-0.2088,-0.207,-0.2075,-0.2069,-0.2079,-0.2,-0.1992,-0.1984,-0.1966,-0.1956,-0.2071,-0.2071,-0.2071,-0.2072,0,-0.1742,-0.1779,-0.1802,-0.185,-0.1898,-0.1948,-0.1991,-0.203,-0.2083,-0.2099,-0.21,-0.2097,-0.2071,-0.2064,-0.2055,-0.1988,-0.2008,-0.2016,-0.2024,-0.1973,-0.1956,-0.1946,-0.2069,-0.2069,-0.207,-0.207,0,0,-0.1775,-0.179,-0.1806,-0.1819,-0.1882,-0.1921,-0.1905,-0.1942,-0.1939,-0.1982,-0.1969,-0.1932,-0.1981,-0.195,-0.1951,-0.1912,-0.1866,-0.1944,-0.1942,-0.1935,-0.1798,-0.1731,-0.1714,-0.1871,-0.1869,-0.1867,-0.181,0,-0.176,-0.1726,-0.1753,-0.1761,-0.1778,-0.1843,-0.1818,-0.1845,-0.1886,-0.1891,-0.1895,-0.1893,-0.1915,-0.1928,-0.1887,-0.1893,-0.1839,-0.1882,-0.1838,-0.1836,-0.1791,-0.1699,-0.1526,-0.1453,-0.18,-0.1799,-0.1798,0,-0.1778,-0.1735,-0.1717,-0.1725,-0.1751,-0.1748,-0.1782,-0.1775,-0.1776,-0.1814,-0.1809,-0.1838,-0.1794,-0.1834,-0.1774,-0.181,-0.1791,-0.1786,-0.1784,-0.1721,-0.1749,-0.1556,-0.1423,-0.1782,-0.1783,-0.1784,-0.1785,0,-0.1779,-0.1756,-0.1733,-0.1733,-0.1723,-0.1734,-0.1744,-0.1755,-0.1756,-0.1769,-0.1794,-0.1759,-0.1767,-0.1732,-0.1738,-0.1758,-0.1686,-0.1706,-0.1611,-0.1608,-0.1448,-0.1433,-0.1625,-0.1625,-0.1625,-0.1625,-0.1626,0,-0.1786,-0.1797,-0.1726,-0.1713,-0.1689,-0.1716,-0.1716,-0.1724,-0.1728,-0.1716,-0.1759,-0.1744,-0.1747,-0.1722,-0.1711,-0.1632,-0.1654,-0.1576,-0.1569,-0.1434,-0.1419,-0.1699,-0.1709,-0.1623,-0.1624,-0.1624,-0.1624,0,-0.185,-0.1803,-0.1773,-0.1712,-0.1696,-0.1692,-0.1685,-0.1664,-0.1707,-0.1691,-0.1698,-0.172,-0.1677,-0.1668,-0.1615,-0.1589,-0.1531,-0.1491,-0.1346,-0.1321,-0.1487,-0.1496,-0.1361,-0.1357,-0.1354,-0.1352,-0.135,0,-0.1889,-0.1856,-0.1757,-0.1708,-0.1692,-0.1665,-0.1626,-0.1641,-0.1621,-0.1661,-0.164,-0.1623,-0.1571,-0.1492,-0.1382,-0.1294,-0.1421,-0.1156,-0.1133,-0.1443,-0.1451,-0.1464,-0.1476,-0.0921,-0.0915,-0.0911,-0.0908,0,-0.192,-0.1884,-0.1819,-0.1701,-0.1647,-0.1571,-0.1532,-0.1506,-0.1522,-0.1521,-0.1502,-0.1473,-0.1361,-0.1183,-0.1095,-0.103,-0.1158,-0.1063,-0.1386,-0.1023,-0.1024,-0.1035,-0.1061,-0.0869,-0.0873,-0.0875,-0.0878,-0.0879,-0.1934,-0.1887,-0.1775,-0.168,-0.1605,-0.1489,-0.1407,-0.1364,-0.1312,-0.1259,-0.1308,-0.1213,-0.1164,-0.0888,-0.0808,-0.0727,-0.0815,-0.0819,-0.0833,-0.0852,-0.0819,-0.0816,-0.0617,-0.0619,-0.0621,-0.0623,-0.0624,0,-0.1871,-0.1815,-0.1745,-0.1595,-0.1492,-0.1476,-0.1339,-0.1212,-0.1106,-0.1038,-0.0986,-0.0828,-0.0687,-0.0656,-0.0427,-0.0395,-0.0385,-0.0417,-0.0423,-0.0458,-0.049,-0.0442,-0.0138,-0.0138,-0.0137,-0.0137,0,0,-0.1826,-0.173,-0.1688,-0.1504,-0.1426,-0.1236,-0.1138,-0.0944,-0.0816,-0.0659,-0.0586,-0.0596,-0.0596,-0.0387,-0.031,-0.0195,-0.0323,-0.0152,-0.0525,-0.0561,-0.0594,-0.0686,-0.0646,0,0,0,0,0]},{"header":{"parameterUnit":"m.s-1","parameterCategory":2,"la1":30.2991,"la2":30.254,"lo1":-89.0895,"lo2":-89.0444,"dy":0.0017,"dx":0.0017,"nx":28,"ny":28,"refTime":"2024-08-14T03:00:00:Z","depth":"2","parameterNumber":3,"parameterNumberName":"V-component_of_CURRENTS"},"data":[0,0,0,0,0,0,0,0,0,0,0,0,0,0,0,0,0,0,0,0,0,0,0,0,0,0,0,0,0,0,0,0,0,0,0,0,0,0,0,0,0,0,0,0,0,0,0,0,0,0,0,0,0,0,0,0,0,0,-0.0174,-0.0173,0,-0.0026,-0.0023,-0.0021,0.0142,0.0143,0.0144,0.0145,0.0335,0.0339,0.0343,0,0,0,0,0,0,0,0,0,0,0,0,0,-0.0216,-0.0215,-0.0174,-0.0173,-0.0172,-0.0027,-0.0023,-0.002,0.0142,0.0143,0.0145,0.0146,0.0334,0.0339,0.0343,0,0,0,0,0,0,0,0,0,0,0,0,0,-0.0135,-0.0215,-0.0174,-0.0083,-0.0074,-0.0027,-0.0023,-0.0019,0.0141,0.0143,0.0145,0.0147,0.0332,0.0338,0.0344,0.0343,0,0,0.0362,0.0364,0,0,0,0,0,0,0,0,-0.014,-0.0132,-0.0097,-0.0089,-0.008,0.0031,0.0031,0.01,0.0141,0.0072,0.0146,0.0148,0.0228,0.0242,0.0283,0.0352,0.036,0.0362,0.0366,0.0368,0.037,0,0,0,0,0,0,0,-0.0145,-0.0137,-0.0103,-0.0097,-0.0086,-0.0016,-0.0002,0.0046,0.0148,0.0079,0.0088,0.0084,0.0235,0.0277,0.0288,0.0362,0.0362,0.0367,0.0371,0.0373,0.0543,0.0544,0,0,0,0,0,0,-0.0196,-0.0143,-0.0108,-0.01,-0.0119,-0.0019,-0.0002,0.0003,0.0147,0.0167,0.0082,0.0091,0.0266,0.0281,0.0296,0.0367,0.0368,0.0374,0.0377,0.0542,0.0543,0.0544,0,0,0,0,0,0,-0.0197,-0.0194,-0.0114,-0.0128,-0.0114,-0.0022,-0.0016,0.0005,0.0099,0.0147,0.0171,0.0159,0.0268,0.0287,0.036,0.0373,0.0376,0.0382,0.0541,0.0543,0.0544,0.0467,0,0,0,0,0,0,-0.0198,-0.0194,-0.0186,-0.0131,-0.0116,-0.0055,-0.0018,0.0006,0.0084,0.0099,0.0219,0.0236,0.0271,0.0351,0.0366,0.0381,0.0386,0.054,0.0542,0.0543,0.0468,0.0466,0.0464,0,0,0,0,0,-0.02,-0.0205,-0.0186,-0.0182,-0.0114,-0.0055,-0.0037,0.0042,0.0086,0.0135,0.0197,0.0235,0.0375,0.0356,0.0374,0.039,0.0539,0.0541,0.0543,0.0469,0.0466,0.0464,0,0,0,0,0,0,-0.0204,-0.0189,-0.0166,-0.016,-0.0101,-0.0031,0.0007,0.0065,0.0158,0.0182,0.0242,0.0263,0.0337,0.0376,0.0355,0.0448,0.0466,0.0471,0.0404,0.0401,0.0399,0.0317,0.0391,0,0,0,0,0,-0.0214,-0.0213,-0.017,-0.0157,-0.0132,-0.0051,-0.001,0.005,0.0118,0.0167,0.0241,0.031,0.0351,0.0387,0.0446,0.0489,0.0505,0.0516,0.0514,0.0511,0.0459,0.0471,0.0463,0.0552,0.0552,0.0552,0,0,-0.0212,-0.0206,-0.02,-0.0158,-0.0105,-0.0089,-0.0015,0.0058,0.0084,0.0166,0.0248,0.0316,0.0365,0.0415,0.0451,0.0452,0.0511,0.0514,0.0511,0.0459,0.0472,0.0463,0.0455,0.0553,0.0553,0.0553,0,0,-0.0226,-0.0198,-0.0202,-0.0174,-0.0113,-0.0072,-0.0046,0.0052,0.012,0.0191,0.0244,0.0297,0.0407,0.0411,0.0426,0.0444,0.0504,0.0507,0.0418,0.0432,0.0423,0.0415,0.0482,0.0481,0.0496,0.0496,0.0496,0,-0.022,-0.0235,-0.0185,-0.0192,-0.018,-0.0073,-0.0065,-0.0002,0.0114,0.0138,0.0214,0.0319,0.0378,0.0363,0.0371,0.043,0.0476,0.0419,0.0422,0.0414,0.0407,0.0478,0.0477,0.0493,0.0493,0.0494,0.0494,0,-0.0248,-0.0258,-0.0254,-0.0247,-0.0213,-0.0181,-0.012,-0.0055,0.0037,0.0084,0.0155,0.0236,0.0278,0.0326,0.0348,0.0332,0.0399,0.0422,0.0413,0.0392,0.0471,0.0471,0.0488,0.0489,0.049,0.0491,0,0,-0.0235,-0.0271,-0.0268,-0.0284,-0.0239,-0.0213,-0.019,-0.0148,-0.013,-0.0014,0.0006,0.0067,0.0128,0.0145,0.0209,0.0215,0.0235,0.0292,0.0295,0.033,0.0317,0.0338,0.0342,0.027,0.0268,0.0267,0.0412,0,-0.026,-0.0324,-0.0315,-0.034,-0.0357,-0.0297,-0.0288,-0.024,-0.016,-0.0108,-0.0049,0.001,0.0055,0.0105,0.0104,0.0219,0.0223,0.0195,0.0355,0.0359,0.0354,0.0336,0.0333,0.0457,0.0413,0.0413,0.0413,0,-0.0273,-0.0329,-0.0382,-0.0411,-0.0403,-0.0403,-0.0371,-0.0342,-0.0292,-0.0223,-0.0194,-0.011,-0.0089,-0.0023,0.0073,0.0069,0.0156,0.0236,0.0245,0.0267,0.0376,0.0463,0.046,0.0414,0.0414,0.0414,0.0414,0,-0.0295,-0.0354,-0.0406,-0.0421,-0.0444,-0.0443,-0.0428,-0.0385,-0.0355,-0.0299,-0.024,-0.0211,-0.0117,-0.0067,0.0093,0.0097,0.023,0.0264,0.0351,0.0359,0.0379,0.0388,0.028,0.0279,0.0279,0.0279,0.0278,0,-0.0327,-0.0353,-0.0429,-0.0466,-0.0506,-0.0485,-0.0483,-0.0462,-0.0415,-0.0375,-0.0301,-0.0226,-0.012,-0.0013,0.0073,0.0223,0.0213,0.0308,0.0369,0.0364,0.037,0.0335,0.0339,0.0284,0.0283,0.0282,0.0281,0,-0.031,-0.0369,-0.0441,-0.051,-0.0523,-0.0544,-0.0532,-0.0526,-0.0457,-0.0395,-0.0372,-0.0221,-0.0073,0.0029,0.0179,0.0248,0.0353,0.0399,0.0409,0.0464,0.0485,0.0485,0.0507,0.0508,0.0509,0.051,0.0511,0,-0.03,-0.0346,-0.0474,-0.0525,-0.0551,-0.058,-0.0589,-0.0562,-0.0537,-0.0373,-0.0335,-0.0171,-0.0051,0.0177,0.0321,0.0454,0.0407,0.0514,0.0466,0.0437,0.0495,0.0493,0.0491,0.0516,0.0517,0.0517,0.0518,0,-0.0279,-0.033,-0.0408,-0.053,-0.0581,-0.0633,-0.0634,-0.0634,-0.055,-0.0469,-0.0305,-0.0197,0.0074,0.0246,0.0417,0.0485,0.0479,0.053,0.0496,0.0436,0.045,0.0506,0.0503,0.0523,0.0523,0.0522,0.0522,0.0522,-0.0243,-0.0299,-0.0411,-0.0512,-0.0581,-0.0641,-0.067,-0.0648,-0.0605,-0.0461,-0.032,-0.0097,0.0086,0.0366,0.0456,0.0566,0.0582,0.0575,0.0571,0.0568,0.0519,0.0531,0.0616,0.0616,0.0616,0.0616,0.0616,0,-0.0219,-0.0276,-0.0369,-0.0512,-0.059,-0.0616,-0.0656,-0.0672,-0.0619,-0.0454,-0.0305,-0.0044,0.0162,0.0331,0.0544,0.0634,0.0619,0.0591,0.0552,0.0548,0.0545,0.0492,0.0583,0.0583,0.0582,0.0582,0,0,-0.0209,-0.029,-0.0352,-0.0479,-0.0549,-0.0627,-0.0651,-0.0674,-0.0592,-0.0442,-0.0242,-0.002,0.0225,0.0333,0.0434,0.0514,0.0488,0.0504,0.0531,0.0468,0.0461,0.0549,0.0466,0,0,0,0,0]}],[{"header":{"parameterUnit":"m.s-1","parameterCategory":2,"la1":30.2991,"la2":30.254,"lo1":-89.0895,"lo2":-89.0444,"dy":0.0017,"dx":0.0017,"nx":28,"ny":28,"refTime":"2024-08-14T03:00:00:Z","depth":"4","parameterNumber":2,"parameterNumberName":"U-component_of_CURRENTS"},"data":[0,0,0,0,0,0,0,0,0,0,0,0,0,0,0,0,0,0,0,0,0,0,0,0,0,0,0,0,0,0,0,0,0,0,0,0,0,0,0,0,0,0,0,0,0,0,0,0,0,0,0,0,0,0,0,0,0,0,-0.0923,-0.0923,0,-0.0961,-0.0961,-0.0962,-0.099,-0.099,-0.099,-0.0991,-0.1092,-0.1094,-0.1096,0,0,0,0,0,0,0,0,0,0,0,0,0,-0.088,-0.088,-0.0923,-0.0923,-0.0924,-0.0961,-0.0961,-0.0962,-0.099,-0.099,-0.0991,-0.0991,-0.1091,-0.1094,-0.1097,0,0,0,0,0,0,0,0,0,0,0,0,0,-0.0905,-0.0881,-0.0923,-0.0943,-0.0946,-0.0961,-0.0961,-0.0962,-0.099,-0.099,-0.0991,-0.0991,-0.109,-0.1094,-0.1097,-0.1108,0,0,-0.1108,-0.1109,0,0,0,0,0,0,0,0,-0.0904,-0.0906,-0.094,-0.0942,-0.0945,-0.0972,-0.0983,-0.1014,-0.0989,-0.0971,-0.0991,-0.0991,-0.1058,-0.1064,-0.1067,-0.1112,-0.1117,-0.1108,-0.111,-0.1112,-0.1113,0,0,0,0,0,0,0,-0.0902,-0.0905,-0.0937,-0.094,-0.0943,-0.0953,-0.0957,-0.0989,-0.1011,-0.0973,-0.0976,-0.0982,-0.106,-0.1064,-0.107,-0.1118,-0.1108,-0.1111,-0.1113,-0.1115,-0.1207,-0.1207,0,0,0,0,0,0,-0.0899,-0.0903,-0.0935,-0.0938,-0.0927,-0.0953,-0.0958,-0.0962,-0.101,-0.1017,-0.0981,-0.0983,-0.1058,-0.1066,-0.1074,-0.1132,-0.1112,-0.1115,-0.1117,-0.1207,-0.1207,-0.1208,0,0,0,0,0,0,-0.0898,-0.0901,-0.0934,-0.0923,-0.0928,-0.0954,-0.0958,-0.0962,-0.0982,-0.1016,-0.1024,-0.0999,-0.1058,-0.1069,-0.1113,-0.1134,-0.1117,-0.112,-0.1206,-0.1207,-0.1207,-0.1221,0,0,0,0,0,0,-0.0896,-0.0901,-0.0907,-0.0922,-0.0928,-0.095,-0.0958,-0.0963,-0.0985,-0.0988,-0.1034,-0.1042,-0.106,-0.1108,-0.1117,-0.1139,-0.1123,-0.1206,-0.1207,-0.1207,-0.122,-0.1222,-0.1223,0,0,0,0,0,-0.0895,-0.0903,-0.0907,-0.0911,-0.0935,-0.095,-0.0954,-0.0973,-0.0986,-0.0994,-0.1026,-0.1042,-0.1118,-0.1111,-0.1121,-0.1145,-0.1206,-0.1206,-0.1207,-0.1219,-0.1221,-0.1223,0,0,0,0,0,0,-0.0895,-0.0907,-0.0912,-0.0926,-0.0939,-0.0956,-0.0968,-0.0981,-0.1011,-0.1021,-0.1051,-0.1062,-0.1105,-0.1121,-0.1113,-0.1171,-0.1163,-0.1166,-0.1168,-0.1171,-0.1172,-0.1176,-0.1125,0,0,0,0,0,-0.0895,-0.0904,-0.0916,-0.093,-0.0934,-0.0953,-0.0964,-0.0978,-0.1004,-0.1017,-0.1048,-0.1081,-0.1113,-0.1139,-0.1163,-0.1203,-0.12,-0.1222,-0.1224,-0.1225,-0.1234,-0.1248,-0.1252,-0.121,-0.121,-0.121,0,0,-0.09,-0.091,-0.0916,-0.0931,-0.0942,-0.0954,-0.0961,-0.0983,-0.1004,-0.1025,-0.1068,-0.109,-0.1122,-0.1161,-0.1182,-0.1182,-0.1229,-0.1226,-0.1227,-0.1236,-0.1249,-0.1254,-0.1257,-0.1211,-0.1211,-0.1211,0,0,-0.0911,-0.0921,-0.0926,-0.0937,-0.0956,-0.0966,-0.0975,-0.0996,-0.1017,-0.1054,-0.1074,-0.111,-0.1157,-0.1185,-0.1205,-0.1233,-0.1233,-0.1239,-0.1262,-0.1276,-0.128,-0.1283,-0.1258,-0.1259,-0.1246,-0.1246,-0.1246,0,-0.0916,-0.0925,-0.0933,-0.0941,-0.0958,-0.0973,-0.0989,-0.1008,-0.1045,-0.1072,-0.107,-0.1143,-0.1169,-0.1225,-0.1232,-0.1239,-0.1232,-0.1254,-0.1278,-0.1282,-0.1285,-0.1259,-0.126,-0.1247,-0.1247,-0.1247,-0.1247,0,-0.092,-0.0936,-0.0943,-0.0958,-0.0977,-0.0993,-0.1018,-0.1049,-0.1074,-0.1094,-0.1149,-0.1176,-0.1222,-0.1232,-0.1245,-0.1287,-0.1267,-0.1274,-0.1274,-0.129,-0.1261,-0.1262,-0.1248,-0.1248,-0.1248,-0.1247,0,0,-0.09,-0.0937,-0.0938,-0.0956,-0.0989,-0.1003,-0.1051,-0.1093,-0.1128,-0.1158,-0.1202,-0.125,-0.1261,-0.1284,-0.1302,-0.1317,-0.1322,-0.1308,-0.1308,-0.1283,-0.1323,-0.121,-0.1199,-0.1335,-0.1336,-0.1337,-0.1284,0,-0.0898,-0.092,-0.0946,-0.0978,-0.0991,-0.1037,-0.1078,-0.1125,-0.1162,-0.1203,-0.1239,-0.1276,-0.1281,-0.1303,-0.1322,-0.1327,-0.1329,-0.1334,-0.1312,-0.1311,-0.1208,-0.1199,-0.134,-0.1284,-0.1285,-0.1285,-0.1285,0,-0.0877,-0.0902,-0.0932,-0.0995,-0.1006,-0.1034,-0.111,-0.1149,-0.1215,-0.1247,-0.1294,-0.1311,-0.1351,-0.1341,-0.1359,-0.1361,-0.1345,-0.1338,-0.1336,-0.123,-0.1199,-0.1271,-0.1286,-0.1286,-0.1286,-0.1286,-0.1286,0,-0.0838,-0.0889,-0.0917,-0.0934,-0.1004,-0.1045,-0.1088,-0.1162,-0.1196,-0.1269,-0.1288,-0.1342,-0.135,-0.1364,-0.1346,-0.1359,-0.1337,-0.1352,-0.123,-0.122,-0.1335,-0.1332,-0.1356,-0.1356,-0.1356,-0.1356,-0.1356,0,-0.081,-0.0834,-0.0902,-0.0914,-0.0959,-0.1022,-0.1076,-0.1135,-0.1202,-0.1223,-0.1297,-0.1302,-0.1356,-0.1348,-0.1345,-0.1271,-0.1334,-0.1224,-0.1203,-0.1336,-0.1335,-0.1333,-0.1331,-0.1354,-0.1355,-0.1355,-0.1355,0,-0.0755,-0.0799,-0.0833,-0.0911,-0.0936,-0.0965,-0.1048,-0.1082,-0.1158,-0.1186,-0.1204,-0.1262,-0.1244,-0.1267,-0.1266,-0.1237,-0.1204,-0.1161,-0.127,-0.1258,-0.1078,-0.1078,-0.1026,-0.1021,-0.1018,-0.1014,-0.1012,0,-0.0725,-0.0736,-0.0807,-0.0824,-0.086,-0.0915,-0.0951,-0.1046,-0.1074,-0.1138,-0.1133,-0.1141,-0.1163,-0.1062,-0.111,-0.108,-0.1073,-0.1055,-0.1099,-0.1061,-0.1047,-0.1052,-0.1056,-0.1006,-0.1005,-0.1004,-0.1003,0,-0.0669,-0.0697,-0.0719,-0.0752,-0.0788,-0.0829,-0.0884,-0.0896,-0.0987,-0.1055,-0.1023,-0.1012,-0.0975,-0.0973,-0.0945,-0.0936,-0.1077,-0.1016,-0.1025,-0.1067,-0.1037,-0.1027,-0.1036,-0.099,-0.0992,-0.0993,-0.0994,0,-0.062,-0.0616,-0.0643,-0.0665,-0.0703,-0.0724,-0.0775,-0.0798,-0.0833,-0.0914,-0.0887,-0.0904,-0.0941,-0.0893,-0.0874,-0.0847,-0.0849,-0.0848,-0.0866,-0.0881,-0.0861,-0.0804,-0.0658,0,0,0,0,0,-0.0572,-0.0555,-0.0559,-0.0574,-0.0607,-0.0632,-0.0717,-0.0774,-0.0857,-0.08,-0.0844,-0.0806,-0.0769,-0.0784,-0.0726,-0.0818,-0.086,-0.075,-0.0872,-0.0919,-0.0934,-0.0927,0,0,0,0,0,0,-0.0538,-0.0534,-0.0526,-0.0487,-0.0479,-0.0512,-0.0565,-0.0632,-0.0618,-0.0698,-0.0678,-0.0733,-0.0708,-0.0756,-0.069,-0.0696,-0.0756,-0.0767,-0.0765,-0.0911,-0.0924,-0.0936,-0.0934,0,0,0,0,0]},{"header":{"parameterUnit":"m.s-1","parameterCategory":2,"la1":30.2991,"la2":30.254,"lo1":-89.0895,"lo2":-89.0444,"dy":0.0017,"dx":0.0017,"nx":28,"ny":28,"refTime":"2024-08-14T03:00:00:Z","depth":"4","parameterNumber":3,"parameterNumberName":"V-component_of_CURRENTS"},"data":[0,0,0,0,0,0,0,0,0,0,0,0,0,0,0,0,0,0,0,0,0,0,0,0,0,0,0,0,0,0,0,0,0,0,0,0,0,0,0,0,0,0,0,0,0,0,0,0,0,0,0,0,0,0,0,0,0,0,-0.0305,-0.0305,0,-0.0317,-0.0317,-0.0317,-0.0305,-0.0305,-0.0304,-0.0304,-0.0276,-0.0276,-0.0276,0,0,0,0,0,0,0,0,0,0,0,0,0,-0.0258,-0.0258,-0.0305,-0.0305,-0.0305,-0.0317,-0.0317,-0.0317,-0.0305,-0.0305,-0.0304,-0.0304,-0.0277,-0.0276,-0.0276,0,0,0,0,0,0,0,0,0,0,0,0,0,-0.0274,-0.0259,-0.0305,-0.0301,-0.0301,-0.0317,-0.0317,-0.0317,-0.0305,-0.0305,-0.0304,-0.0304,-0.0277,-0.0276,-0.0276,-0.0283,0,0,-0.0274,-0.0274,0,0,0,0,0,0,0,0,-0.0273,-0.0275,-0.0302,-0.0302,-0.0302,-0.031,-0.029,-0.0304,-0.0305,-0.0303,-0.0304,-0.0303,-0.0285,-0.0284,-0.0286,-0.0282,-0.0281,-0.0274,-0.0273,-0.0273,-0.0273,0,0,0,0,0,0,0,-0.0272,-0.0275,-0.0308,-0.0302,-0.0302,-0.0295,-0.0297,-0.0293,-0.0295,-0.0303,-0.0302,-0.0306,-0.0285,-0.0287,-0.0285,-0.028,-0.0274,-0.0273,-0.0273,-0.0273,-0.0293,-0.0293,0,0,0,0,0,0,-0.0274,-0.0274,-0.0308,-0.0309,-0.0287,-0.0296,-0.0298,-0.0307,-0.0296,-0.0295,-0.0306,-0.0305,-0.0288,-0.0286,-0.0284,-0.03,-0.0273,-0.0273,-0.0272,-0.0292,-0.0293,-0.0294,0,0,0,0,0,0,-0.0273,-0.0277,-0.0307,-0.0292,-0.0295,-0.0298,-0.0308,-0.0307,-0.0313,-0.0299,-0.0297,-0.0312,-0.0288,-0.0285,-0.0291,-0.0298,-0.0272,-0.0272,-0.0291,-0.0292,-0.0293,-0.0325,0,0,0,0,0,0,-0.0272,-0.0277,-0.0287,-0.0292,-0.0296,-0.0324,-0.0308,-0.0308,-0.0316,-0.0315,-0.0303,-0.03,-0.0287,-0.0293,-0.0291,-0.0297,-0.0271,-0.029,-0.0291,-0.0293,-0.0323,-0.0327,-0.0331,0,0,0,0,0,-0.027,-0.0286,-0.0287,-0.0291,-0.0309,-0.0325,-0.0327,-0.0325,-0.0317,-0.0326,-0.032,-0.0301,-0.0302,-0.0293,-0.0291,-0.0296,-0.0289,-0.0291,-0.0293,-0.0321,-0.0326,-0.0331,0,0,0,0,0,0,-0.0269,-0.0287,-0.0288,-0.0308,-0.0319,-0.0324,-0.0334,-0.0331,-0.0334,-0.0334,-0.0314,-0.0311,-0.0321,-0.0308,-0.0299,-0.0309,-0.0291,-0.0293,-0.0314,-0.0319,-0.0323,-0.03,-0.0271,0,0,0,0,0,-0.0275,-0.0293,-0.0305,-0.0322,-0.0329,-0.0332,-0.0339,-0.0341,-0.0344,-0.0344,-0.0336,-0.0329,-0.0328,-0.0322,-0.0324,-0.0327,-0.0279,-0.0329,-0.0333,-0.0337,-0.0318,-0.0248,-0.0242,-0.03,-0.03,-0.03,0,0,-0.028,-0.0291,-0.0301,-0.0323,-0.033,-0.0349,-0.0335,-0.0353,-0.0365,-0.0341,-0.0353,-0.0348,-0.0335,-0.0343,-0.0345,-0.033,-0.0302,-0.0339,-0.0342,-0.0321,-0.0249,-0.0243,-0.0237,-0.0302,-0.0301,-0.0301,0,0,-0.0297,-0.0309,-0.0329,-0.0342,-0.0362,-0.0367,-0.0374,-0.0385,-0.0387,-0.0405,-0.0387,-0.0377,-0.0388,-0.0365,-0.0358,-0.0383,-0.0332,-0.0396,-0.0387,-0.032,-0.0314,-0.0307,-0.0259,-0.0248,-0.0389,-0.0389,-0.0389,0,-0.0299,-0.033,-0.0337,-0.0359,-0.0372,-0.0376,-0.0398,-0.0405,-0.0416,-0.0407,-0.0417,-0.0398,-0.0392,-0.0368,-0.0382,-0.0388,-0.0348,-0.0369,-0.0322,-0.0314,-0.0307,-0.0259,-0.0246,-0.0391,-0.0391,-0.0391,-0.039,0,-0.0333,-0.0357,-0.0371,-0.0399,-0.0412,-0.0437,-0.0446,-0.0452,-0.0457,-0.0452,-0.0441,-0.0429,-0.0404,-0.0412,-0.0407,-0.0359,-0.0349,-0.034,-0.0302,-0.0303,-0.0253,-0.0239,-0.0394,-0.0393,-0.0392,-0.0392,0,0,-0.0338,-0.0385,-0.0391,-0.0412,-0.0438,-0.0455,-0.0467,-0.0471,-0.0464,-0.0469,-0.0449,-0.0443,-0.0416,-0.0405,-0.0388,-0.0333,-0.0265,-0.0318,-0.0313,-0.0257,-0.0124,-0.0131,-0.0116,-0.0244,-0.0242,-0.024,-0.0115,0,-0.0363,-0.0415,-0.0426,-0.047,-0.0499,-0.0497,-0.0504,-0.0503,-0.0497,-0.048,-0.0444,-0.0431,-0.0421,-0.0408,-0.035,-0.0293,-0.0227,-0.03,-0.0141,-0.0137,-0.0132,-0.01,-0.0232,-0.0105,-0.0101,-0.0099,-0.0097,0,-0.0395,-0.0427,-0.0479,-0.0508,-0.0517,-0.0538,-0.0536,-0.0542,-0.0506,-0.0495,-0.0452,-0.0426,-0.0358,-0.0353,-0.0212,-0.026,-0.0187,-0.0135,-0.0129,-0.0106,-0.0117,-0.01,-0.0071,-0.0074,-0.0075,-0.0077,-0.0079,0,-0.0411,-0.046,-0.0505,-0.0521,-0.0554,-0.0562,-0.0569,-0.0545,-0.0543,-0.0495,-0.0482,-0.0396,-0.0361,-0.0251,-0.0153,-0.0173,0.0006,-0.0007,0.0064,0.0063,0.0047,0.0039,0.0122,0.0122,0.0121,0.0121,0.0121,0,-0.0438,-0.0474,-0.0521,-0.055,-0.0586,-0.0589,-0.0603,-0.0589,-0.0562,-0.0545,-0.049,-0.045,-0.033,-0.0226,-0.0132,0.0009,0.0034,0.0086,0.0107,0.0024,0.0012,0.0056,0.0046,0.0126,0.0125,0.0124,0.0123,0,-0.0454,-0.0488,-0.0544,-0.0587,-0.0603,-0.0628,-0.0647,-0.0642,-0.0613,-0.0586,-0.0572,-0.0478,-0.0332,-0.0205,-0.0023,0.0032,0.0168,0.0217,0.0118,0.0128,0.0173,0.016,0.031,0.0311,0.0312,0.0312,0.0313,0,-0.047,-0.0504,-0.0577,-0.0608,-0.0635,-0.067,-0.0684,-0.0674,-0.0662,-0.0596,-0.0578,-0.0446,-0.0364,-0.0111,0.0015,0.0217,0.0235,0.0289,0.0237,0.0193,0.0199,0.0184,0.0171,0.0315,0.0315,0.0315,0.0315,0,-0.0492,-0.0522,-0.0563,-0.0632,-0.0672,-0.0707,-0.0724,-0.0721,-0.0684,-0.0666,-0.0553,-0.0429,-0.0265,-0.0091,0.0069,0.0204,0.024,0.0299,0.0297,0.0248,0.0201,0.0202,0.0187,0.0318,0.0318,0.0318,0.0317,0,-0.05,-0.0531,-0.0585,-0.064,-0.0693,-0.0721,-0.0732,-0.07,-0.0685,-0.0606,-0.0563,-0.0393,-0.0295,-0.0095,0.0051,0.0186,0.0205,0.0214,0.0217,0.0215,0.0138,0.006,0.0175,0,0,0,0,0,-0.0504,-0.0532,-0.0584,-0.0647,-0.0699,-0.0728,-0.0743,-0.074,-0.0709,-0.0626,-0.0591,-0.0428,-0.0205,-0.0113,0.0028,0.0051,0.0213,0.0214,0.0221,0.0336,0.0332,0.0255,0,0,0,0,0,0,-0.0506,-0.0552,-0.0578,-0.0638,-0.0679,-0.0729,-0.0738,-0.072,-0.0664,-0.0615,-0.0485,-0.0423,-0.0196,-0.0275,0.0025,0.0063,0.0077,0.0321,0.0323,0.0338,0.0335,0.0332,0.0251,0,0,0,0,0]}]]